Florala, AL

7:13 PM CST on December 14, 2017 (GMT -0600)
Florala

Weather History for K0J4 - October, 2012

Change the Weather History Date:

Saturday, October 13, 2012

  Actual Average (KCEW) Record (KCEW)
Temperature  
Mean Temperature 74 °F -  
Max Temperature 84 °F 79 °F 91 °F (2017)
Min Temperature 64 °F 52 °F 37 °F (2000)
Cooling Degree Days 9    
Growing Degree Days 24 (Base 50)    
Moisture  
Dew Point 63 °F    
Average Humidity 73    
Maximum Humidity 93    
Minimum Humidity 49    
Precipitation  
Precipitation 0.00 in - - ()
Sea Level Pressure  
Sea Level Pressure 30.21 in    
Wind  
Wind Speed 4 mph (East)    
Max Wind Speed 8 mph    
Max Gust Speed -    
Visibility 10 miles    
Events      
Averages and records for this station are not official NWS values.
T = Trace of Precipitation, MM = Missing Value Source: NWS Daily Summary

Daily Weather History Graph

Daily Weather History Graph

Search for Another Location

Airport or City:

Trip Planner

Search our weather history database for the weather conditions in past years. The results will help you decide how hot, cold, wet, or windy it might be!

Date:

Astronomy

Oct. 13, 2012 Rise Set
Actual Time 6:46 AM CDT 6:15 PM CDT
Civil Twilight 6:22 AM CDT 6:39 PM CDT
Nautical Twilight 5:54 AM CDT 7:07 PM CDT
Astronomical Twilight 5:26 AM CDT 7:35 PM CDT
Moon 4:42 AM CDT (10/13) 4:54 PM CDT (10/13)
Length of Visible Light 12h 17m
Length of Day
11h 28m
Waning Crescent, 5% of the Moon is Illuminated
Oct 13
Waning Crescent
Oct 15
New
Oct 21
First Quarter
Oct 29
Full
Nov 6
Last Quarter

Hourly Weather History & Observations

Time (CDT) Temp. Heat Index Dew Point Humidity Pressure Visibility Wind Dir Wind Speed Gust Speed Precip Events Conditions
1:58 AM 68.0 °F - 63.0 °F 84% 30.21 in 10.0 mi NE 4.6 mph - N/A   Clear
2:58 AM 66.9 °F - 62.1 °F 84% 30.20 in 10.0 mi East 4.6 mph - N/A   Clear
3:58 AM 66.0 °F - 62.1 °F 87% 30.21 in 10.0 mi ENE 3.5 mph - N/A   Clear
4:58 AM 64.9 °F - 61.0 °F 87% 30.22 in 10.0 mi NE 3.5 mph - N/A   Clear
5:58 AM 64.9 °F - 61.0 °F 87% 30.23 in 10.0 mi ENE 3.5 mph - N/A   Clear
6:58 AM 64.9 °F - 61.0 °F 87% 30.24 in 10.0 mi East 4.6 mph - N/A   Clear
7:58 AM 66.9 °F - 62.1 °F 84% 30.26 in 10.0 mi East 5.8 mph - N/A   Clear
8:58 AM 71.1 °F - 62.1 °F 73% 30.27 in 10.0 mi East 6.9 mph - N/A   Clear
9:58 AM 75.9 °F - 63.0 °F 64% 30.27 in 10.0 mi East 8.1 mph - N/A   Clear
10:58 AM 79.0 °F - 64.0 °F 60% 30.27 in 10.0 mi East 6.9 mph - N/A   Clear
11:58 AM 82.9 °F 84.6 °F 64.9 °F 54% 30.25 in 10.0 mi East 8.1 mph - N/A   Clear
12:58 PM 82.0 °F 83.4 °F 64.0 °F 54% 30.22 in 10.0 mi Variable 5.8 mph - N/A   Clear
1:58 PM 84.0 °F 84.9 °F 63.0 °F 49% 30.19 in 10.0 mi ESE 5.8 mph - N/A   Clear
2:58 PM 84.0 °F 84.9 °F 63.0 °F 49% 30.17 in 10.0 mi Calm Calm - N/A   Clear
3:58 PM 82.0 °F 83.4 °F 64.0 °F 54% 30.17 in 10.0 mi East 3.5 mph - N/A   Partly Cloudy
4:58 PM 81.0 °F 82.7 °F 64.9 °F 58% 30.17 in 10.0 mi Calm Calm - N/A   Partly Cloudy
5:58 PM 78.1 °F - 64.9 °F 64% 30.18 in 10.0 mi East 4.6 mph - N/A   Clear
6:58 PM 75.0 °F - 64.9 °F 71% 30.18 in 10.0 mi East 3.5 mph - N/A   Clear
7:58 PM 73.0 °F - 64.9 °F 76% 30.19 in 10.0 mi East 3.5 mph - N/A   Clear
8:58 PM 71.1 °F - 64.9 °F 81% 30.20 in 10.0 mi Calm Calm - N/A   Scattered Clouds
9:58 PM 69.1 °F - 64.9 °F 87% 30.20 in 10.0 mi Calm Calm - N/A   Clear
10:58 PM 66.0 °F - 64.0 °F 93% 30.20 in 9.0 mi Calm Calm - N/A   Clear
11:58 PM 68.0 °F - 64.0 °F 87% 30.18 in 10.0 mi Calm Calm - N/A   Clear